Weather History for KLWD - April, 2014

Change the Weather History Date:

Sunday, April 6, 2014

  Actual Average Record
Temperature  
Mean Temperature 52 °F 49 °F  
Max Temperature 61 °F 59 °F 85 °F (1972)
Min Temperature 43 °F 38 °F 12 °F (1982)
Degree Days  
Heating Degree Days 13 16  
Month to date heating degree days 143 103  
Since 1 July heating degree days 6348 5592  
Cooling Degree Days 0 0  
Month to date cooling degree days 0 0  
Year to date cooling degree days 0 1  
Growing Degree Days 2 (Base 50)    
Moisture  
Dew Point 33 °F    
Average Humidity 52    
Maximum Humidity 67    
Minimum Humidity 36    
Precipitation  
Precipitation 0.00 in 0.09 in 1.17 in (2005)
Month to date precipitation 0.17 0.47  
Sea Level Pressure  
Sea Level Pressure 29.96 in    
Wind  
Wind Speed 5 mph (SSE)    
Max Wind Speed 14 mph    
Max Gust Speed 19 mph    
Visibility 10 miles    
Events      
T = Trace of Precipitation, MM = Missing Value Source: NWS Daily Summary

Daily Weather History Graph

Daily Weather History Graph

Search for Another Location

Airport or City:

Trip Planner

Search our weather history database for the weather conditions in past years. The results will help you decide how hot, cold, wet, or windy it might be!

Date:

Astronomy

Apr. 06, 2014 Rise Set
Actual Time 6:51 AM CDT 7:45 PM CDT
Civil Twilight 6:23 AM CDT 8:13 PM CDT
Nautical Twilight 5:50 AM CDT 8:46 PM CDT
Astronomical Twilight 5:16 AM CDT 9:20 PM CDT
Moon 11:51 AM CDT (4/6) 1:43 AM CDT (4/6)
Length of Visible Light 13h 50m
Length of Day
12h 54m
Waxing Crescent, 44% of the Moon is Illuminated
Apr 6
Waxing Crescent
Apr 7
First Quarter
Apr 15
Full
Apr 22
Last Quarter
Apr 29
New

Hourly Weather History & Observations

Time (CDT) Temp. Windchill Dew Point Humidity Pressure Visibility Wind Dir Wind Speed Gust Speed Precip Events Conditions
12:53 AM 46.0 °F 41.4 °F 28.9 °F 51% 30.05 in 10.0 mi SSW 9.2 mph - N/A   Overcast
1:53 AM 45.0 °F 39.7 °F 30.0 °F 56% 30.04 in 10.0 mi South 10.4 mph - N/A   Overcast
2:53 AM 44.1 °F 39.5 °F 30.0 °F 58% 30.04 in 10.0 mi South 8.1 mph - N/A   Overcast
3:53 AM 44.1 °F 39.5 °F 30.9 °F 60% 30.05 in 10.0 mi South 8.1 mph - N/A   Overcast
4:53 AM 44.1 °F 40.1 °F 30.0 °F 58% 30.04 in 10.0 mi SSE 6.9 mph - N/A   Mostly Cloudy
5:53 AM 43.0 °F 40.3 °F 30.9 °F 62% 30.04 in 10.0 mi SE 4.6 mph - N/A   Overcast
6:53 AM 43.0 °F 40.3 °F 30.9 °F 62% 30.04 in 10.0 mi SE 4.6 mph - N/A   Overcast
7:53 AM 43.0 °F 38.8 °F 32.0 °F 65% 30.04 in 10.0 mi ESE 6.9 mph - N/A   Mostly Cloudy
8:53 AM 45.0 °F 41.8 °F 32.0 °F 60% 30.03 in 10.0 mi SE 5.8 mph - N/A   Overcast
9:53 AM 48.0 °F - 32.0 °F 54% 30.01 in 10.0 mi SE 3.5 mph - N/A   Mostly Cloudy
10:53 AM 55.0 °F - 30.9 °F 40% 29.99 in 10.0 mi WNW 3.5 mph - N/A   Mostly Cloudy
11:53 AM 57.0 °F - 32.0 °F 39% 29.96 in 10.0 mi NNW 5.8 mph - N/A   Mostly Cloudy
12:53 PM 60.1 °F - 33.1 °F 36% 29.95 in 10.0 mi SSE 5.8 mph - N/A   Mostly Cloudy
1:53 PM 60.1 °F - 35.1 °F 39% 29.93 in 10.0 mi SSE 5.8 mph 16.1 mph N/A   Mostly Cloudy
2:53 PM 59.0 °F - 34.0 °F 39% 29.91 in 10.0 mi SSW 4.6 mph - N/A   Scattered Clouds
3:53 PM 59.0 °F - 35.1 °F 41% 29.90 in 10.0 mi South 9.2 mph - N/A   Overcast
4:53 PM 60.1 °F - 34.0 °F 38% 29.89 in 10.0 mi ESE 5.8 mph - N/A   Scattered Clouds
5:53 PM 60.1 °F - 33.1 °F 36% 29.88 in 10.0 mi East 5.8 mph - N/A   Mostly Cloudy
6:53 PM 59.0 °F - 32.0 °F 36% 29.88 in 10.0 mi SE 4.6 mph - N/A   Overcast
7:53 PM 57.0 °F - 33.1 °F 40% 29.88 in 10.0 mi SSE 5.8 mph - N/A   Overcast
8:53 PM 54.0 °F - 36.0 °F 51% 29.88 in 10.0 mi SSE 5.8 mph - N/A   Overcast
9:53 PM 54.0 °F - 36.0 °F 51% 29.88 in 10.0 mi SSE 4.6 mph - N/A   Overcast
10:53 PM 51.1 °F - 36.0 °F 56% 29.87 in 10.0 mi Calm Calm - N/A   Overcast
11:53 PM 51.1 °F - 36.0 °F 56% 29.86 in 10.0 mi Calm Calm - N/A   Overcast